Location: ????????
(55.6189°N, 38.3031°E)
Time: 21:53:31
(UTC+00:00)

ALOS - Pass Details

Date: 15 November 2019
Orbit: 683 x 686 km, 97.8° (Epoch: 05 December)

Event Time Altitude Azimuth Distance (km) Brightness Sun altitude
Rises 02:02:43 0° 22° (NNE) 3,063 5.9 -24.7°
Reaches altitude 10° 02:05:19 10° 35° (NE) 2,142 5.3 -24.3°
Maximum altitude 02:09:13 26° 91° (E) 1,351 4.5 -23.8°
Drops below altitude 10° 02:13:06 10° 148° (SSE) 2,128 5.2 -23.3°
Sets 02:15:40 0° 161° (SSE) 3,039 5.8 -22.9°
